Location: Unspecified
(0.0000°N, 0.0000°E)
Time: 07:07:08
(UTC+00:00)

Hubble Space Telescope - Pass Details

Date: 19 October 2019
Orbit: 536 x 540 km, 28.5° (Epoch: 14 October)

Event Time Altitude Azimuth Distance (km) Brightness Sun altitude
Exits shadow 04:39:33 - 212° (SSW) 2,478 3.9 -16.1°
Reaches altitude 10° 04:41:51 10° 195° (SSW) 1,781 3.4 -15.6°
Maximum altitude 04:44:38 18° 152° (SSE) 1,368 3.3 -14.9°
Drops below altitude 10° 04:47:26 10° 109° (ESE) 1,778 4.8 -14.2°
Sets 04:50:17 0° 89° (E) 2,666 6.1 -13.5°
